Погода в Силифке

Турция     36°22′31″N   33°56′14″E
темп.,
°C
ветер,
м/с
пор.,
м/с
влажн.,
%
обл.,
%
осадки,
мм/ч
давл.,
гПа
погр.,
м
2 марта, вт
вт200:00+7сз33420 0.0 102133
03:00+5сз22500 0.0 102126
06:00+4сз22500 0.0 102127
09:00+8ссз12370 0.0 1021191
12:00+11вюв32420 0.0 10201083
15:00+12в43431 0.0 10191191
18:00+10всв455330 0.0 1018668
21:00+8всв478048 0.4 1018531
3 марта, ср
ср300:00+7св71189100 7.3 1019746
03:00+6всв71295100 13.6 1018598
06:00+6св51188100 8.6 1018704
09:00+6св61288100 11.7 1019597
12:00+7св71184100 7.3 1019624
15:00+9всв4776100 8.5 1018632
18:00+9сз117964 0.1 1018116
21:00+7ссз336657 0.1 101938
4 марта, чт
чт400:00+7ссз336055 0.0 101930
03:00+6сз335827 0.0 101938
06:00+5сз54560 0.0 101971
09:00+8сз55530 0.0 1020159
12:00+12зсз32430 0.0 1020747
15:00+13зсз55420 0.0 1018659
18:00+10ссз68430 0.0 1018312
21:00+7ссз55400 0.0 102077
5 марта, пт
пт500:00+7ссз44350 0.0 102043
03:00+5сз33340 0.0 102028
06:00+4сз22360 0.0 102025
09:00+9св00320 0.0 1021117
12:00+12ю33360 0.0 1022606
15:00+14ю33350 0.0 1020677
18:00+11ююв11670 0.0 1021216
21:00+7св11780 0.0 102222
6 марта, сб
сб600:00+6ссв12800 0.0 102322
03:00+6всв118527 0.0 102222
06:00+5всв118883 0.0 102222
09:00+9ю017790 0.0 1023351
12:00+11ююв2275100 0.0 1022610
15:00+12ююз2371100 0.1 1021664
18:00+10ююз3389100 0.2 1020300
21:00+8зюз119176 0.3 102132